Location: Chandolas
(44.4033°N, 4.2533°E)
Time: 10:21:25
(UTC+00:00)

Cosmos 1048 Rocket - Pass Details

Date: 15 November 2019
Orbit: 742 x 792 km, 74.0° (Epoch: 05 December)

Event Time Altitude Azimuth Distance (km) Brightness Sun altitude
Rises 05:59:37 0° 338° (NNW) 3,302 6.9 -7.3°
Reaches altitude 10° 06:02:01 10° 338° (NNW) 2,368 6.2 -6.9°
Maximum altitude 06:07:26 83° 251° (WSW) 802 4.1 -5.9°
Drops below altitude 10° 06:12:46 10° 164° (SSE) 2,337 7.1 -5.1°
Sets 06:15:07 0° 164° (SSE) 3,255 7.8 -4.7°
